Temperature
8 8 8 8 7 7 7 6 6 5 6 6 5 5 4 3 3 3 2 2 2 2 1 1 0 0 -0 -1 -1 -2 -2 -2 -2 -3 -3 -3 -3 -3
8 8 8 7 7 7 7 6 6 5 5 5 5 4 3 3 2 2 2 2 1 1 1 0 -0 -1 -1 -2 -2 -2 -3 -3 -3 -3 -3 -3 -3 -3
8 8 8 7 7 7 6 6 6 5 5 5 4 4 3 3 2 2 1 1 1 0 0 -0 -1 -1 -2 -2 -2 -3 -3 -3 -4 -4 -4 -4 -4 -4
8 8 8 7 7 7 6 6 5 5 4 4 4 3 3 2 2 1 1 1 0 0 -0 -1 -1 -2 -2 -3 -3 -3 -4 -4 -4 -4 -5 -5 -5 -4
8 8 7 7 7 6 6 5 5 4 4 3 3 3 2 2 1 1 1 0 -0 -1 -1 -1 -2 -2 -3 -3 -4 -4 -4 -4 -5 -5 -5 -5 -5 -5
8 7 7 7 7 6 6 5 4 4 3 3 3 2 2 1 1 0 0 -0 -1 -1 -1 -2 -2 -3 -3 -4 -4 -4 -5 -5 -5 -6 -6 -6 -6 -6
7 7 7 7 6 6 5 4 4 3 3 2 2 1 1 1 -0 -1 -1 -1 -1 -2 -2 -2 -3 -3 -4 -4 -4 -5 -5 -5 -6 -6 -6 -6 -6 -6
7 7 7 6 6 5 4 4 3 3 2 2 1 1 0 -0 -1 -1 -2 -2 -3 -3 -3 -3 -4 -4 -4 -5 -5 -5 -6 -6 -6 -6 -6 -6 -6 -6
7 7 6 6 5 4 4 3 3 2 2 1 0 0 -0 -1 -2 -2 -3 -3 -3 -4 -4 -4 -4 -4 -5 -5 -5 -6 -6 -6 -7 -7 -7 -7 -7 -7
6 6 6 5 5 4 3 3 2 2 1 1 0 -0 -1 -2 -2 -3 -3 -3 -4 -4 -5 -5 -5 -5 -5 -5 -6 -6 -7 -7 -7 -7 -7 -7 -7 -7
6 5 5 5 4 3 3 2 2 1 1 -0 -1 -1 -2 -2 -3 -3 -4 -4 -4 -5 -5 -6 -6 -6 -6 -6 -6 -6 -7 -7 -7 -7 -7 -7 -7 -7
5 5 5 4 3 3 2 2 1 1 -0 -1 -1 -2 -2 -3 -3 -4 -4 -5 -5 -6 -6 -7 -7 -8 -8 -7 -6 -7 -7 -7 -7 -7 -7 -7 -7 -7
5 4 4 3 3 2 2 1 0 -0 -1 -1 -2 -2 -3 -3 -4 -4 -5 -5 -6 -6 -7 -8 -8 -8 -9 -8 -7 -7 -7 -7 -7 -7 -7 -7 -7 -7
4 4 3 3 2 1 1 0 -1 -1 -1 -2 -2 -3 -3 -4 -4 -5 -5 -6 -6 -7 -7 -8 -8 -9 -9 -9 -8 -7 -7 -8 -8 -8 -7 -7 -7 -7
3 3 2 2 1 0 -0 -1 -1 -2 -2 -2 -3 -3 -4 -4 -5 -5 -6 -6 -7 -7 -8 -8 -8 -9 -9 -9 -9 -8 -8 -8 -8 -8 -8 -7 -7 -7
3 2 2 1 0 -0 -1 -1 -2 -2 -3 -3 -3 -4 -4 -5 -5 -6 -6 -7 -7 -7 -8 -8 -9 -9 -9 -9 -9 -8 -9 -9 -8 -8 -8 -7 -7 -7
2 1 1 0 -0 -1 -1 -2 -2 -3 -3 -4 -4 -5 -5 -6 -6 -7 -7 -7 -8 -8 -8 -8 -9 -9 -9 -9 -8 -8 -9 -9 -8 -8 -8 -8 -7 -7
1 1 0 -0 -1 -1 -2 -2 -3 -3 -4 -4 -5 -5 -6 -6 -7 -7 -8 -8 -8 -9 -9 -9 -9 -9 -8 -8 -8 -9 -9 -9 -8 -8 -8 -8 -7 -7
1 0 -0 -1 -2 -2 -2 -3 -3 -4 -4 -5 -5 -6 -7 -7 -7 -8 -8 -8 -9 -9 -9 -9 -10 -10 -10 -9 -9 -9 -9 -9 -9 -8 -8 -8 -8 -7
-0 -1 -1 -2 -2 -3 -3 -4 -4 -5 -5 -6 -6 -7 -7 -7 -8 -8 -9 -9 -9 -9 -9 -10 -10 -10 -10 -10 -10 -9 -9 -9 -9 -8 -8 -8 -7 -7
-1 -1 -2 -2 -3 -3 -4 -4 -5 -5 -6 -6 -7 -7 -8 -8 -8 -9 -9 -9 -9 -10 -10 -10 -10 -10 -10 -10 -10 -9 -9 -9 -9 -9 -9 -8 -8 -7
-1 -2 -3 -3 -4 -4 -5 -5 -5 -6 -6 -7 -7 -8 -8 -8 -9 -9 -9 -9 -10 -10 -10 -10 -10 -10 -10 -10 -10 -10 -9 -8 -8 -8 -8 -9 -9 -9
-2 -3 -3 -4 -4 -5 -5 -5 -6 -6 -7 -7 -8 -8 -9 -9 -9 -9 -10 -10 -10 -10 -10 -10 -10 -10 -10 -10 -10 -10 -9 -9 -8 -8 -8 -8 -8 -8
Wind_Speed
9 8 6 5 5 4 4 5 5 3 4 4 3 3 6 6 6 6 8 11 14 15 16 17 18 19 19 20 21 22 22 23 24 24 25 26 26 26
7 8 7 5 5 5 4 4 4 5 4 4 4 3 4 6 7 8 10 12 14 16 17 18 18 19 19 21 22 22 23 24 24 25 26 26 26 27
8 9 9 7 6 5 4 4 4 4 5 4 3 2 3 4 7 9 10 11 13 15 17 18 18 19 20 21 21 22 23 24 24 25 25 26 26 27
10 9 9 7 7 6 5 6 5 5 5 5 3 3 5 5 5 6 8 10 12 14 16 18 19 19 20 21 22 23 23 23 24 24 25 25 26 26
12 11 10 9 9 6 6 6 5 5 4 4 4 3 3 3 3 4 6 7 10 13 15 17 18 19 19 21 22 23 23 23 23 24 24 25 25 25
11 11 11 11 11 9 8 7 6 5 4 4 4 4 4 3 3 4 5 4 5 9 12 14 16 18 19 21 22 22 22 23 23 24 24 24 24 25
9 9 9 11 12 10 8 7 7 5 4 4 4 3 4 3 4 3 5 5 5 5 5 8 11 11 15 19 20 21 21 22 22 23 24 24 24 24
10 8 8 9 12 13 13 11 10 7 6 5 5 5 6 5 4 4 4 5 5 3 3 6 6 7 10 13 18 20 21 22 22 22 23 23 24 24
9 8 7 7 9 7 9 10 10 12 10 6 6 7 6 6 5 5 5 6 6 4 3 6 4 7 10 14 19 20 20 21 22 22 22 23 23 24
9 9 8 7 7 7 6 5 6 6 7 6 6 7 6 6 5 5 5 5 6 5 4 5 4 5 8 12 17 18 19 20 21 21 22 22 22 22
6 7 7 7 10 9 6 5 5 5 7 9 9 9 10 11 8 3 3 4 6 4 3 4 4 5 5 6 12 16 18 20 21 21 21 21 21 20
4 5 8 8 10 10 7 6 6 5 3 3 4 6 5 7 9 4 3 4 5 4 3 3 3 3 5 4 5 10 13 17 20 20 20 20 20 14
5 5 5 9 9 10 7 6 7 4 3 3 3 3 3 3 4 4 4 4 5 5 3 2 3 3 4 5 4 5 7 9 12 13 17 19 20 16
6 5 6 9 9 8 6 6 6 3 2 2 2 2 3 3 3 4 6 7 7 8 8 5 4 4 4 6 6 5 5 8 7 7 10 17 18 19
5 7 7 8 7 5 5 4 3 2 2 2 3 3 3 3 2 2 3 5 6 8 9 7 6 5 5 6 7 6 6 6 5 6 8 9 9 9
4 5 6 6 4 3 3 2 2 2 2 3 3 3 2 2 2 2 2 2 3 5 6 7 7 5 5 7 7 8 6 5 6 8 9 9 9 9
6 4 3 3 3 2 1 1 1 1 2 2 2 2 2 2 2 2 2 2 3 4 4 4 6 7 8 7 6 7 7 7 7 8 9 10 9 8
6 4 4 4 4 4 3 2 2 2 2 2 2 2 2 3 3 2 2 2 3 4 4 4 4 4 4 4 8 7 6 6 7 8 7 8 10 9
4 4 4 5 4 4 3 3 3 3 2 3 3 3 3 3 3 3 2 3 3 4 4 3 2 2 4 6 6 5 5 7 8 8 7 7 9 11
3 4 4 4 4 4 3 3 3 2 2 2 3 3 3 2 2 3 3 3 4 4 4 3 3 3 3 4 5 6 10 7 6 8 8 8 8 12
3 3 3 3 3 3 3 3 3 3 3 3 3 3 3 3 3 3 3 6 4 3 4 5 5 7 4 3 5 6 6 11 10 8 7 8 8 6
4 3 3 3 3 3 3 3 3 3 3 3 3 3 3 3 4 4 4 4 3 3 4 4 4 3 1 2 5 7 7 8 11 14 11 8 5 6
3 3 3 3 3 3 3 3 4 4 4 4 3 3 3 3 3 3 3 3 3 3 3 3 3 2 2 3 4 5 7 8 6 6 6 12 14 14
Wind_Direction
188 186 187 187 181 179 168 164 168 216 257 250 247 243 236 253 275 293 299 304 312 313 312 312 312 313 313 314 313 312 311 311 311 310 309 308 308 308
182 182 190 185 180 178 178 175 175 184 230 242 234 240 246 260 273 288 292 300 306 308 309 310 311 311 312 313 312 311 311 310 310 309 309 308 307 307
183 187 194 181 181 182 177 177 184 177 220 254 241 242 243 256 279 285 288 291 294 301 305 308 309 310 311 312 311 310 310 309 310 310 309 308 308 307
189 186 193 184 187 184 183 190 196 194 201 240 250 242 243 249 262 278 283 285 287 294 300 305 307 309 310 311 311 310 309 310 310 310 309 309 308 308
188 190 192 184 193 192 191 197 203 205 202 220 247 241 254 257 270 273 276 281 289 291 297 302 305 307 309 310 311 311 310 309 309 309 310 310 310 309
189 191 190 190 195 192 197 202 198 199 205 224 248 253 254 259 255 270 285 272 281 290 291 296 300 304 307 310 311 310 310 309 310 310 311 311 311 310
189 192 194 196 198 196 198 197 191 199 205 222 245 257 257 256 255 252 272 286 278 266 279 291 296 295 297 301 306 307 308 310 311 312 312 312 312 311
190 192 196 199 207 211 216 211 200 199 207 213 235 245 256 249 251 255 268 292 294 255 256 277 278 280 289 292 298 305 309 312 313 313 312 313 313 312
187 186 192 203 205 203 217 220 220 224 220 212 225 237 246 242 246 260 257 258 264 263 261 274 262 274 288 292 301 305 311 314 314 313 314 315 315 314
184 185 189 193 196 192 192 203 217 226 230 226 224 236 240 239 235 248 259 264 263 260 241 270 272 271 288 289 294 303 312 315 316 316 316 317 317 317
181 181 183 189 203 198 186 200 222 241 245 247 250 255 264 270 268 254 269 284 290 275 230 251 278 287 282 275 288 302 312 316 318 318 319 320 319 320
170 181 194 198 203 199 188 192 219 234 222 243 258 274 278 283 286 261 235 261 281 286 250 249 276 307 301 273 277 292 301 311 318 319 320 321 321 322
177 187 200 207 208 208 205 199 222 223 200 213 238 260 274 275 272 257 229 225 252 261 257 254 269 262 265 293 288 280 288 302 310 311 317 320 321 321
183 187 194 200 203 205 208 217 225 229 174 183 235 257 262 262 261 257 255 246 244 252 266 253 253 260 277 291 292 292 297 299 299 300 309 316 318 318
174 180 184 190 191 192 205 208 197 166 169 212 244 252 249 249 255 273 276 278 279 276 275 259 246 259 262 276 286 292 306 301 295 301 308 309 307 309
144 159 163 164 157 167 175 173 151 173 190 219 243 246 243 248 255 255 272 300 303 300 292 285 273 258 265 266 273 286 290 290 305 310 310 305 302 300
139 128 135 148 153 154 155 169 170 188 228 225 231 246 254 264 267 255 249 272 277 289 301 307 304 287 258 257 275 280 287 291 295 306 312 310 304 299
144 155 166 172 181 186 191 202 207 218 226 231 234 235 252 261 264 263 255 259 274 280 286 295 317 327 322 284 242 264 282 289 300 305 304 307 308 308
150 165 178 185 188 189 196 205 222 232 226 226 232 238 246 252 256 262 265 269 275 279 282 285 297 313 317 314 298 263 279 301 306 307 303 300 300 304
163 177 186 187 187 192 201 213 225 230 228 230 234 239 237 240 254 261 261 261 272 279 289 291 277 269 265 287 295 295 297 292 297 304 305 303 292 293
178 182 185 187 192 198 205 211 217 224 228 228 233 237 234 232 248 255 259 276 277 271 284 286 279 300 283 284 294 294 295 303 302 297 301 308 311 311
181 186 190 192 195 200 207 213 221 228 230 229 232 236 233 231 244 251 254 261 261 260 269 282 301 317 309 283 294 299 302 310 315 315 307 298 308 316
183 186 189 193 198 201 206 216 223 230 229 226 228 232 232 238 245 248 250 249 256 267 279 298 316 318 290 274 287 296 302 311 313 321 316 323 325 317
Height
1518 1520 1521 1522 1523 1523 1524 1524 1524 1521 1519 1519 1519 1518 1518 1516 1514 1511 1509 1506 1503 1501 1498 1494 1491 1487 1484 1481 1477 1474 1470 1467 1463 1460 1457 1454 1451 1448
1513 1515 1516 1517 1518 1519 1519 1519 1519 1518 1516 1515 1515 1514 1513 1511 1509 1507 1504 1501 1499 1496 1493 1489 1486 1482 1478 1475 1471 1468 1464 1460 1457 1453 1450 1447 1444 1441
1507 1509 1511 1512 1513 1514 1514 1514 1514 1513 1511 1510 1510 1509 1508 1506 1504 1502 1499 1496 1493 1491 1487 1484 1480 1477 1473 1469 1465 1461 1457 1454 1450 1446 1443 1440 1437 1434
1501 1503 1505 1507 1508 1508 1509 1509 1509 1508 1507 1505 1504 1504 1503 1501 1499 1496 1494 1491 1488 1485 1482 1478 1475 1471 1467 1463 1459 1455 1451 1447 1443 1440 1436 1433 1430 1426
1496 1498 1499 1501 1502 1503 1503 1503 1503 1503 1502 1500 1499 1498 1497 1496 1493 1490 1488 1485 1482 1479 1476 1472 1469 1465 1460 1456 1452 1448 1444 1440 1437 1433 1430 1426 1423 1420
1489 1491 1493 1495 1496 1497 1497 1498 1498 1497 1497 1495 1493 1492 1491 1489 1487 1484 1480 1478 1475 1473 1469 1466 1463 1459 1455 1450 1446 1442 1438 1434 1431 1427 1424 1420 1417 1413
1483 1485 1487 1489 1490 1491 1492 1492 1492 1491 1490 1489 1488 1486 1485 1483 1481 1477 1474 1471 1468 1465 1462 1460 1457 1453 1449 1444 1440 1436 1432 1428 1425 1421 1417 1414 1410 1407
1476 1479 1481 1483 1484 1485 1486 1486 1486 1486 1485 1484 1482 1481 1479 1478 1475 1472 1468 1464 1460 1459 1455 1452 1450 1446 1442 1438 1434 1430 1426 1423 1419 1415 1412 1408 1404 1401
1471 1473 1475 1476 1478 1479 1479 1480 1480 1480 1480 1479 1477 1475 1474 1472 1469 1466 1463 1459 1456 1453 1449 1444 1443 1439 1436 1432 1429 1425 1421 1417 1413 1410 1406 1402 1398 1395
1465 1467 1469 1470 1472 1473 1473 1473 1473 1474 1474 1472 1471 1470 1468 1466 1463 1461 1457 1453 1450 1448 1445 1439 1435 1432 1429 1427 1424 1420 1416 1412 1408 1404 1400 1397 1393 1389
1459 1461 1463 1464 1466 1467 1467 1467 1467 1467 1467 1466 1465 1464 1462 1460 1458 1455 1452 1448 1443 1441 1439 1435 1429 1425 1422 1420 1418 1415 1411 1407 1403 1399 1395 1391 1388 1384
1453 1455 1457 1458 1460 1460 1461 1461 1461 1461 1461 1459 1459 1458 1456 1454 1453 1450 1447 1443 1439 1435 1433 1430 1425 1422 1416 1413 1412 1410 1406 1403 1399 1395 1391 1387 1383 1379
1447 1449 1451 1452 1453 1454 1455 1455 1455 1455 1454 1453 1452 1451 1450 1448 1446 1444 1442 1439 1436 1432 1430 1426 1422 1419 1416 1410 1406 1404 1402 1398 1394 1390 1387 1383 1379 1375
1441 1444 1445 1447 1448 1448 1449 1450 1450 1450 1449 1448 1447 1446 1444 1442 1440 1438 1436 1434 1431 1428 1425 1422 1418 1416 1412 1407 1402 1399 1397 1394 1390 1386 1382 1379 1375 1372
1437 1438 1440 1441 1442 1443 1444 1444 1444 1444 1443 1442 1441 1440 1439 1437 1435 1432 1430 1428 1426 1424 1421 1418 1415 1412 1409 1405 1400 1396 1392 1389 1387 1383 1378 1374 1371 1366
1431 1433 1435 1436 1437 1438 1439 1439 1439 1439 1438 1437 1436 1435 1433 1431 1429 1427 1425 1423 1420 1418 1417 1414 1411 1408 1405 1402 1398 1394 1391 1387 1383 1379 1375 1371 1368 1364
1426 1427 1429 1430 1431 1432 1433 1434 1434 1434 1433 1432 1431 1430 1428 1427 1425 1423 1421 1418 1416 1413 1412 1410 1408 1405 1402 1399 1395 1392 1388 1385 1381 1377 1372 1367 1364 1361
1422 1422 1424 1425 1426 1427 1428 1428 1429 1428 1428 1427 1426 1425 1423 1422 1420 1418 1417 1415 1413 1410 1408 1406 1403 1400 1398 1395 1393 1389 1386 1382 1378 1375 1370 1365 1360 1357
1416 1417 1419 1420 1421 1422 1423 1423 1423 1423 1423 1422 1421 1420 1419 1417 1416 1414 1413 1411 1409 1407 1405 1403 1400 1397 1394 1391 1389 1388 1384 1379 1375 1372 1368 1364 1359 1354
1411 1413 1414 1415 1416 1417 1418 1418 1418 1418 1418 1417 1416 1415 1414 1413 1411 1410 1409 1407 1406 1404 1402 1401 1399 1396 1393 1391 1387 1384 1383 1378 1374 1369 1365 1361 1357 1353
1406 1408 1409 1410 1411 1412 1413 1413 1413 1413 1412 1412 1411 1410 1410 1408 1407 1406 1405 1404 1402 1401 1399 1398 1396 1394 1392 1389 1386 1382 1380 1378 1374 1369 1364 1359 1354 1349
1402 1403 1405 1406 1407 1407 1408 1408 1408 1408 1407 1407 1406 1406 1405 1404 1403 1402 1401 1400 1399 1398 1397 1395 1394 1392 1390 1387 1384 1381 1377 1375 1373 1369 1365 1361 1356 1350
1398 1399 1400 1401 1402 1402 1402 1403 1402 1402 1402 1402 1401 1401 1400 1400 1399 1399 1398 1397 1396 1395 1394 1392 1391 1390 1388 1386 1383 1380 1377 1374 1370 1367 1364 1361 1357 1353